www.pogodaiklimat.ru

Погода и климат >> Архив погоды >> Италия >> Капо Карбонара


ПОГОДА на Капо Карбонара

  • Прогноз погоды на Капо Карбонара
  • Монитор погоды на Капо Карбонара

АРХИВ ПОГОДЫ на Капо Карбонара

Время (UTC), дата Ветер
(напр.,м/с)
 
Видим.   Явления Облачность Т
(С)
Тd
(С)
f
(%)
Тe
(С)
Тes
(С)
Комфортность P
(гПа)
Po
(гПа)
Тmin
(С)
Tmax
(С)
R
(мм)
R24
(мм)
S
(см)
15 12.08 ЮЗ 5 20 км ясно +31.0 +30.1 95 +57 +61 опасность
перегрева
1011.3 998.0
18 12.08 З 7 10 км ясно +28.4 +26.6 90 +44 +44 опасность
перегрева
1011.0 997.6 +32.6
21 12.08 СВ 4 20 км 1/0
[Ac trans]
+29.2 +21.2 62 +37 +37 очень
душно
1011.5 998.1
00 13.08 СВ 6 20 км 3/0
[Ac trans Ci fib]
+27.0 +25.2 90 +39 +39 очень
душно
1012.0 998.5
03 13.08 З 4 20 км ясно +26.6 +24.8 90 +38 +38 очень
душно
1011.3 997.8
06 13.08 В 4 20 км 5/0
[Ac trans Ci fib]
+26.4 +23.9 86 +36 +37 очень
душно
1011.0 997.5 +25.8
09 13.08 ЮЗ 4 10 км 5/3 540 м
[Sc Ac trans Ci fib]
+28.4 +25.8 86 +42 +47 опасность
перегрева
1012.0 998.6
12 13.08 В 4 20 км 6/1 600 м
[Cu hum Ci fib]
+32.8 +27.3 73 +52 +61 опасность
перегрева
1011.2 998.0
15 13.08 В 4 20 км 5/1 600 м
[Cu hum Ac cast Ci fib]
+30.8 +29.4 92 +55 +58 опасность
перегрева
1011.0 997.8
18 13.08 ЮЗ 4 20 км 9/4 600 м
[Cu med, cong Ac As Ci sp]
+28.4 +25.8 86 +42 +42 опасность
перегрева
1011.7 998.3 +33.0
21 13.08 З 11 20 км зарница 9/3 600 м
[Cu med, cong Ac As Ci sp]
+26.0 +19.4 67 +31 +31 очень
душно
1012.3 998.8
00 14.08 З 14 20 км 6/1 600 м
[Cu med, cong Ac trans Ci sp]
+23.8 +20.7 83 +30 +30 очень
душно
1013.6 999.9
03 14.08 З 11 20 км ясно +23.0 +20.0 83 +30 +30 очень
душно
1013.5 999.8
06 14.08 СЗ 10 20 км ясно +24.0 +20.3 80 +30 +30 очень
душно
1013.2 999.6 +23.0
09 14.08 З 14 20 км ясно +25.8 +18.7 65 +31 +31 очень
душно
1013.7 1000.2
12 14.08 З 20 20 км ясно +27.6 +20.7 66 +34 +34 очень
душно
1012.9 999.4
15 14.08 З 15 20 км ясно +28.6 +18.4 54 +33 +33 очень
душно
1013.0 999.6
18 14.08 З 13 20 км ясно +26.0 +20.1 70 +32 +32 очень
душно
1013.2 999.7 +29.0
21 14.08 З 13 20 км 3/1 600 м
[Cu med, cong Ac trans]
+24.0 +20.7 82 +30 +30 очень
душно
1014.1 1000.4
00 15.08 З 11 20 км ясно +23.8 +20.0 79 +29 +29 душно 1014.7 1001.0
03 15.08 З 8 20 км ясно +23.2 +19.6 80 +30 +30 очень
душно
1014.6 1001.0
06 15.08 В 1 20 км ясно +24.0 +16.0 61 +27 +29 жарко 1015.2 1001.6 +22.8
09 15.08 ЮЗ 2 20 км ясно +26.4 +19.1 64 +32 +44 очень
душно
1015.6 1002.1
12 15.08 Ю 6 20 км ясно +30.0 +22.0 62 +39 +45 очень
душно
1015.5 1002.1
15 15.08 ЮВ 6 20 км ясно +29.8 +23.8 70 +41 +44 опасность
перегрева
1014.7 1001.3
18 15.08 З 14 20 км ясно +29.4 +18.6 52 +34 +34 очень
душно
1013.6 1000.2 +30.2
21 15.08 СЗ 7 20 км ясно +26.4 +22.2 78 +34 +34 очень
душно
1014.7 1001.2
00 16.08 З 5 20 км ясно +26.0 +22.2 80 +34 +34 очень
душно
1015.8 1002.2
03 16.08 З 9 20 км ясно +24.8 +22.1 85 +32 +32 очень
душно
1014.7 1001.1
06 16.08 З 7 20 км ясно +25.6 +21.5 78 +33 +33 очень
душно
1014.7 1001.1 +24.4
09 16.08 З 15 20 км ясно +26.8 +24.0 85 +37 +37 очень
душно
1015.1 1001.6
12 16.08 З 14 20 км 1/1 600 м
[Cu hum]
+29.0 +23.3 71 +39 +39 очень
душно
1014.8 1001.4
15 16.08 З 18 20 км ясно +30.2 +19.8 54 +36 +36 очень
душно
1013.1 999.8
18 16.08 С 3 20 км ясно +27.4 +24.3 83 +38 +38 очень
душно
1014.4 1000.9 +31.0
21 16.08 З 5 20 км ясно +24.6 +23.4 93 +33 +33 очень
душно
1015.6 1002.0
00 17.08 С 2 20 км ясно +24.8 +19.8 74 +30 +30 душно 1016.0 1002.4
03 17.08 штиль 0 20 км ясно +24.8 +19.4 72 +30 +30 душно 1015.6 1002.0
06 17.08 СВ 1 20 км ясно +23.2 +20.2 83 +30 +32 очень
душно
1015.8 1002.2 +23.0
09 17.08 В 1 20 км 1/1 600 м
[Cu hum]
+26.4 +23.5 84 +36 +49 очень
душно
1017.0 1003.5
12 17.08 В 4 20 км 3/1 600 м
[Cu hum Ci fib]
+30.8 +26.9 80 +48 +59 опасность
перегрева
1016.6 1003.2
15 17.08 Ю 5 20 км 3/1 600 м
[Cu hum Ci fib]
+31.0 +27.2 80 +49 +53 опасность
перегрева
1016.1 1002.8
18 17.08 ЮВ 2 20 км 3/1 600 м
[Cu hum Ci fib]
+28.8 +26.9 89 +45 +45 опасность
перегрева
1015.8 1002.3 +31.4
21 17.08 СВ 3 20 км ясно +25.8 +24.9 95 +37 +37 очень
душно
1016.2 1002.7
00 18.08 СВ 3 20 км 1/0
[Ci fib]
+25.2 +23.3 89 +34 +34 очень
душно
1016.2 1002.6
03 18.08 СВ 2 20 км 1/0
[Ci fib]
+25.0 +23.0 89 +33 +33 очень
душно
1015.4 1001.8
06 18.08 СВ 2 20 км 4/4 660 м
[Cu hum]
+25.0 +22.6 87 +33 +34 очень
душно
1015.4 1001.8 +24.8
09 18.08 В 6 20 км 4/4 660 м
[Cu med, cong]
+27.2 +24.9 87 +39 +42 очень
душно
1015.7 1002.2
12 18.08 В 7 20 км 3/3 660 м
[Cu hum]
+30.0 +25.3 76 +44 +47 опасность
перегрева
1015.6 1002.2
15 18.08 В 6 20 км 1/1 600 м
[Cu hum]
+30.0 +25.8 78 +45 +47 опасность
перегрева
1015.2 1001.8
18 18.08 В 7 20 км 3/3 600 м
[Cu hum]
+27.8 +25.0 85 +40 +40 очень
душно
1014.6 1001.2 +31.0
21 18.08 В 7 20 км 1/1 600 м
[Cu hum]
+26.6 +23.6 84 +36 +36 очень
душно
1015.1 1001.6
00 19.08 В 7 20 км 3/3 750 м
[Cu hum]
+26.0 +22.9 83 +35 +35 очень
душно
1015.0 1001.5
03 19.08 СВ 7 20 км 5/5 750 м
[Cu med, cong]
+25.0 +21.9 83 +32 +32 очень
душно
1014.4 1000.9
06 19.08 СВ 6 20 км 4/4 660 м
[Cu hum]
+25.6 +22.1 81 +33 +33 очень
душно
1015.0 1001.4 +25.0
09 19.08 В 8 20 км 3/3 600 м
[Cu med, cong]
+28.4 +23.1 73 +38 +40 очень
душно
1015.6 1002.1
12 19.08 В 7 20 км 1/1 600 м
[Cu hum]
+30.0 +24.7 73 +43 +47 опасность
перегрева
1016.0 1002.6

 

Местоположение метеостанции Капо Карбонара (Италия): широта 39.10 долгота 9.52 высота над уровнем моря 118 м.

В архиве по умолчанию представлена погода на Капо Карбонара за последнюю неделю. Архивные данные за месяц целиком и за предыдущие месяцы, начиная с января 2011 года, Вы можете получить, выбрав интересующий диапазон дат из раскрывающегося списка и нажав кнопку "Ввод!".


*Определитесь, кто Вы:
робот инопланетянин человек

Внимание! Время в таблицах - всемирное. Для получения местного времени необходимо прибавить поправку, которая равна 1 ч.

Смотрите также архив погоды в соседних городах и на ближайших метеорологических станциях:

Погода в Дечимоманну (Италия) (55 км)
Погода на Капо Беллависто (Италия) (94 км)
Погода на Капо Фраска (Италия) (116 км)
Погода на Капо Кацция (Италия) (200 км)
Погода в Ольвии (Италия) (200 км)
Погода в Альгеро (Италия) (200 км)
Погода в Бизерте (Тунис) (207 км)
Погода в Табарке (Тунис) (248 км)
Погода на Мысе Пертюзато (Франция) (254 км)
Погода в Тунисе (Тунис) (260 км)

Пояснения к столбцам:

Ветер - указаны скорость ветра в м/с - средняя за 10 мин, порывы в срок и между сроками (в фигурных скобках) и направление, откуда дует ветер: С - северный, СВ - северо-восточный, В - восточный, ЮВ - юго-восточный, Ю - южный, ЮЗ - юго-западный, З - западный, СЗ - северо-западный.
Видимость - горизонтальная дальность видимости в метрах или километрах. При видимости от 1 до 10 км при отсутствии осадков обычно наблюдается дымка, при ухудшении видимости до 1 км и менее - туман. В сухую погоду видимость может ухудшаться дымом, пылью или мглою.
Явления - указаны атмосферные явления, наблюдавшиеся в срок или в последний час перед сроком; фигурными скобками обозначены явления, наблюдавшиеся между сроками (за 1-3 часа до срока); квадратными скобками обозначены град или гололедные отложения с указанием их диаметра в мм.
Облачность - указаны через наклонную черту общая и нижняя облачность в баллах и высота нижней границы облаков в метрах; квадратными скобками обозначены формы облаков: Ci - перистые, Cs - перисто-слоистые, Cc - перисто-кучевые, Ac - высококучевые, As - высокослоистые, Sc - слоисто-кучевые, Ns - слоисто-дождевые, Cu - кучевые, Cb - кучево-дождевые. Подробнее классификацию облаков см. в Атласе облаков (PDF).
T - Температура воздуха - температура, измеренная на высоте 2 м над землей.
Td - Температура точки росы - температура, при понижении до которой содержащийся в воздухе водяной пар достигнет насыщения.
f - Относительная влажность воздуха - влажноcть воздуха, измеренная на высоте 2 м над землей.
Te - Эффективная температура - температура, которую ощущает одетый по сезону человек в тени. Характеристика душности погоды. При расчете учитывается влияние влажности воздуха и скорости ветра на теплоощущения человека.
Tes - Эффективная температура на солнце - температура, которую ощущает человек, с поправкой на солнечный нагрев. Характеристика знойности погоды. Зависит от высоты солнца над горизонтом, облачности и скорости ветра. Ночью, в пасмурную погоду, а также при ветре 12 м/с и более поправка равна нулю.
P - Атмосферное давление - приведенное к уровню моря атмосферное давление.
Po - Атмосферное давление - измеренное на уровне метеостанции атмосферное давление.
Tmin - Минимальная температура - минимум температуры воздуха на высоте 2 м над землей.
Tmax - Максимальная температура - максимум температуры воздуха на высоте 2 м над землей.
R - Количество осадков - Количество выпавших осадков за период времени, мм. При наведении курсора мыши на число - период времени, за который выпало указанное количество осадков.
R24 - Количество осадков - Количество выпавших осадков за 24 часа, мм.
S - Снежный покров - Высота снежного покрова, см. При наведении курсора мыши на число - состояние снежного покрова и степень покрытия местности в баллах.